Regional Weather Roundup
Issued by NWS

Home | Current Version | Previous Version | Text Only | Print | Product List | Glossary Off
Versions: 1 2 3 4 5 6 7 8 9 10 11 12 13 14 15 16 17 18 19 20 21 22 23 24 25 26 27 28 29 30 31 32 33 34 35 36 37 38 39 40 41 42 43 44 45 46 47 48 49 50

000
ASUS43 KMKX 291111
RWRWI

WISCONSIN REGIONAL WEATHER ROUNDUP
NATIONAL WEATHER SERVICE MILWAUKEE/SULLIVAN WI
600 AM CDT TUE JUL 29 2014

NOTE: "FAIR" INDICATES FEW OR NO CLOUDS BELOW 12,000 FEET WITH NO
SIGNIFICANT WEATHER AND/OR OBSTRUCTIONS TO VISIBILITY.

WIZ001-002-006>008-014>016-023>028-291200-
NORTHWEST WISCONSIN

CITY           SKY/WX    TMP DP  RH WIND       PRES   REMARKS
SUPERIOR ARPT  PTCLDY    56  55  93 W5        30.07F
ASHLAND        CLOUDY    57  54  89 SW5       30.06S
HAYWARD        CLOUDY    50  49  96 SW5       30.09F
SIREN          CLEAR     53  51  96 CALM      30.10S
RICE LAKE      NOT AVBL
LADYSMITH      CLEAR     56  53  91 NW5       30.10R
EAU CLAIRE     CLEAR     54  53  97 SW7       30.08S
MENOMONIE      SUNNY     58  55  91 W7        30.09S
NEW RICHMOND   CLEAR     53  53  99 CALM      30.12S
OSCEOLA        FOG       53  53 100 CALM      30.14S VSB 1/4
$$

WIZ003>005-009-010-017-018-291200-
NORTH CENTRAL WISCONSIN

CITY           SKY/WX    TMP DP  RH WIND       PRES   REMARKS
WOODRUFF       CLEAR     55  52  90 NW3       30.05S
RHINELANDER    PTCLDY    51  51 100 W6        30.05S
EAGLE RIVER    FOG       47  47 100 CALM      30.03S VSB<1/4
LAND O LAKES   CLEAR     46  46  99 CALM      30.04F
PHILLIPS       PTCLDY    52  52 100 CALM      30.06S
TOMAHAWK       FOG       46  45  97 CALM      30.06S VSB 1/4
MEDFORD        MOCLDY    51  51  99 CALM      30.07R FOG
MERRILL        FOG       50  50 100 CALM      30.05F VSB 3/4
$$

WIZ029-030-035-036-043>047-291200-
CENTRAL WISCONSIN

CITY           SKY/WX    TMP DP  RH WIND       PRES   REMARKS
WAUSAU         MOCLDY    56  54  93 NW3       30.04S
MOSINEE        PTCLDY    54  54 100 N5        30.06R
MARSHFIELD     MOCLDY    56  53  90 NW8       30.06R
STEVENS POINT  CLEAR     52  51  95 CALM      30.05S
WAUPACA        PTCLDY    59  55  85 CALM      30.03R
WAUTOMA        CLOUDY    57  54  90 W3        30.04S
WISC RAPIDS    PTCLDY    53  52  96 W3        30.06S
CAMP DOUGLAS   CLEAR     54  54 100 W3        30.06S
$$

WIZ011>013-019>022-031-037>040-048>050-291200-
NORTHEAST WISCONSIN

CITY           SKY/WX    TMP DP  RH WIND       PRES   REMARKS
ANTIGO         PTCLDY    52  51  97 CALM      30.04S
STURGEON BAY   PTCLDY    57  54  88 CALM      29.99S
GREEN BAY      PTCLDY    57  55  93 NW9       30.01R
MANITOWOC      PTCLDY    58  55  90 NW8       30.00R
APPLETON       MOCLDY    55  54  94 NW8       30.02R
CLINTONVILLE   MOCLDY    55  52  88 NW5       30.01F
OSHKOSH        MOCLDY    58  54  86 W6        30.01S
$$

WIZ032>034-041-042-053>061-291200-
SOUTHWEST WISCONSIN

CITY           SKY/WX    TMP DP  RH WIND       PRES   REMARKS
LA CROSSE      CLEAR     57  54  89 CALM      30.08S
SPARTA         CLEAR     48  47  97 CALM      30.09R
VIROQUA        FAIR      53  53 100 W3        30.09S
BOSCOBEL       CLEAR     53  51  93 SW5       30.09S
PRAIRIE DU CHI CLEAR     54  51  90 CALM      30.09S
PLATTEVILLE    FAIR      52  51  95 W3        30.10R
$$

WIZ056-057-062-063-064-067-068-291200-
SOUTH CENTRAL WISCONSIN

CITY           SKY/WX    TMP DP  RH WIND       PRES   REMARKS
BARABOO/DELLS  CLEAR     56  50  80 CALM      30.06S
LONE ROCK      CLEAR     58  53  84 W6        30.07S
WATERTOWN      CLEAR     56  53  89 CALM      30.03S
MADISON        PTCLDY    59  52  77 W5        30.05S
MIDDLETON      FAIR      57  53  85 NW5       30.06R
MONROE         CLEAR     57  52  82 W12       30.07R
JANESVILLE     PTCLDY    57  52  82 W3        30.04S
$$

WIZ051-052-058>065-066-070>072-291200-
SOUTHEAST WISCONSIN

CITY           SKY/WX    TMP DP  RH WIND       PRES   REMARKS
MILWAUKEE      PTCLDY    62  53  72 NW6       30.01S
WAUKESHA       PTCLDY    57  52  82 W7        30.03S
MILWAUKEE/TIMM CLEAR     55  52  88 CALM      30.03R
RACINE         MOCLDY    61  54  77 W6        30.03S
BURLINGTON     PTCLDY    53  52  95 CALM      30.03S
KENOSHA        CLOUDY    58  54  86 W7        30.03R
FOND DU LAC    CLEAR     55  52  89 CALM      30.02S
SHEBOYGAN      CLEAR     57  54  89 NW7       30.00S
WEST BEND      PTCLDY    59  52  77 W8        30.02R
JUNEAU         CLEAR     56  52  85 CALM      30.04S
$$

LSZ147-162-291200-
LAKE SUPERIOR

STATION/POSITION TIME  TEMP    WIND        PRES    WAVE
                       AIR SEA DIR/SP/G            HT/PER
                 (UTC) (F)     (DEG/KT/KT) (MB)    (FT/S)
W MID LAKE BUOY  1050   49 43  260/  6/  8 1016.4R   1/ 3
PORT WING        1000   58     200/  4/  5 1017.9S
SAXON HARBOR     1000          190/  4/  6 1017.6R
$$

LMZ867-665-643>646-291200-
LAKE MICHIGAN

STATION/POSITION TIME  TEMP    WIND        PRES    WAVE
                       AIR SEA DIR/SP/G            HT/PER
                 (UTC) (F)     (DEG/KT/KT) (MB)    (FT/S)
N MID LAKE BUOY  1050   56 51  300/  8/  8 1013.9R   1
NORTHPORT PIER   1000   61     320/  9/ 12 1014.6R
SISTER BAY       1040   62     350/ 13/ 16   N/A
ALGOMA LAKESHORE 1006          340/  6/  9   N/A
KEWAUNEE LAKESHO 1000   58     300/  5/  6 1015.6F
SHEBOYGAN LAKESH 1100   62     290/  9/ 10 1016.0R
PORT WASHINGTON  1000   62     290/  5/  9 1016.6R
ATWATER BUOY     1000   63     270/ 12     1017.1R
MILWAUKEE LAKESH 1000   63     290/  9/ 13   N/A
S MID LAKE BUOY  1050   61 60  240/  8/ 10 1016.1R   1/ 5
KENOSHA   LAKESH 1100   61     280/ 11/ 14 1016.3
$$

TC  - TEMPERATURE IN CELSIUS
VSB - VISIBILITY IN STATUTE MILES
WCI - WIND CHILL INDEX
HX  - HEAT INDEX




USA.gov is the U.S. government's official web portal to all federal, state and local government web resources and services.